IRIDIUM 6 [+]

Last updated on Dec. 19, 2017, 12:19 a.m. UTC

1 24794U 97020C   17352.44895943  .02749462 -15952-5  90895-3 0  9994
2 24794  86.3697 240.1321 0193292 111.6443 250.5552 15.94959587 79839

Satellite is not in orbit.